COSMOS 2251 DEB, 37331

Orbit data source: Space-Track

COSMOS 2251 DEB, 37331 is space debris in LEO originally from a launch on Wed, 16 Jun 1993 UTC launched from the Plesetsk Missile And Space Complex (PKMTR). The debris from Iridium 33, an American commercial communications satellite, has been tracked extensively since its accidental collision with the defunct Russian satellite Cosmos 2251 in 2009. This event, occurring at high speed in low Earth orbit (LEO), generated thousands of pieces of space debris, significantly increasing the risk of further collisions. The Iridium 33 debris cloud has impacted space traffic management and orbital debris mitigation strategies, making it a subject of ongoing study in space situational awareness.

Loading next visibility...
Identifier
37331, 1993-036BKX
Orbit
LEO
Country
Flag of CISCIS
Related business
Manufacturer
Unknown
Mission
Spacecraft
Bus & Motor
Unknown
Mass
Unknown
Launch date (UTC)
1993-06-16 (33 years ago)
Launch vehicle
Unknown
Launch site
Plesetsk Missile And Space Complex (PKMTR)
Object type
Payload
Rocket body
Debris
Shape & HBR
Unknown shape, 0.1 m
Radar Cross Section
Small (<0.1 m²)

Expand to show TLE details & history
Last TLE update: 1 week ago

TLE from 1 week ago
0 COSMOS 2251 DEB
1 37331U 93036BKX 26163.54288898  .00001350  00000-0  46858-3 0  9991
2 37331  74.0737  95.2207 0055325  65.0269 295.6616 14.35622183873682
Epoch: 2026-06-12T13:01Z
TLE epoch observation values (Epoch: 2026-06-12T13:01:45.607Z)
Latitude
-0.00009°
Longitude
-1.09019°
Altitude
758.655 km
Speed
7.484 km/s
True Right ascension
06h 20m 52s
True Declination
0° 00' 00"
Sunlit
Object was in daylight at epoch
Visualization orbit readout
Latitude
Unknown
Longitude
Unknown
Altitude
Unknown
Speed
Unknown
Apparent Right ascension
Unknown
Apparent Declination
Unknown
Sunlit
N/A
Visualization observer readout
Local Sidereal Time
04:18:44
Azimuth
Unknown
Elevation
Unknown
Doppler factor
Unknown
Orbital elements
Apogee altitude
810.171 km
Perigee altitude
731.07 km
Semi-major axis
7,148.758 km
Eccentricity
0.00553
Inclination
74.0737°
RAAN
95.2207°
Arg. of periapsis
65.0269°
True anomaly
295.08845°
Mean anomaly
295.6616°
Eccentric anomaly
295.37519°
Mean motion
3.59085 °/min
Orbital period
100.25 mins
BSTAR
0.00046858
Loading maneuver chart data...
Computing Atmospheric mass density...

Documentation

Showing up to 5 results
|